Mount Holly, NJ

11:44 AM EST on December 09, 2019 (GMT -0500)
South Jersey Regional

Weather History for KVAY - November, 2019

Change the Weather History Date:

Saturday, November 16, 2019

  Actual Average (KPNE) Record (KPNE)
Temperature  
Mean Temperature 38 °F -  
Max Temperature 43 °F 52 °F 75 °F (2005)
Min Temperature 32 °F 34 °F 21 °F (1996)
Degree Days  
Heating Degree Days 28    
Moisture  
Dew Point 14 °F    
Average Humidity 42    
Maximum Humidity 72    
Minimum Humidity 24    
Precipitation  
Precipitation 0.00 in - - ()
Sea Level Pressure  
Sea Level Pressure 30.38 in    
Wind  
Wind Speed 9 mph (NNE)    
Max Wind Speed 17 mph    
Max Gust Speed 25 mph    
Visibility 10 miles    
Events      
Averages and records for this station are not official NWS values.
T = Trace of Precipitation, MM = Missing Value Source: NWS Daily Summary

Daily Weather History Graph

Daily Weather History Graph

Search for Another Location

Airport or City:

Astronomy

Nov. 16, 2019 Rise Set
Actual Time 6:45 AM EST 4:42 PM EST
Civil Twilight 6:16 AM EST 5:11 PM EST
Nautical Twilight 5:43 AM EST 5:44 PM EST
Astronomical Twilight 5:11 AM EST 6:16 PM EST
Moon 8:12 PM EST (11/16) 10:36 AM EST (11/16)
Length of Visible Light 10h 55m
Length of Day
9h 57m
Waning Gibbous, 82% of the Moon is Illuminated
Nov 16
Waning Gibbous
Nov 19
Last Quarter
Nov 26
New
Dec 4
First Quarter
Dec 12
Full

Hourly Weather History & Observations

Time (EST) Temp. Windchill Dew Point Humidity Pressure Visibility Wind Dir Wind Speed Gust Speed Precip Events Conditions
12:54 AM 37.0 °F 31.6 °F 27.0 °F 67% 30.25 in 10.0 mi North 6.9 mph - N/A   Clear
1:54 AM 35.1 °F 29.3 °F 27.0 °F 72% 30.25 in 10.0 mi North 6.9 mph - N/A   Clear
3:54 AM 35.1 °F 29.3 °F 24.1 °F 64% 30.28 in 10.0 mi North 6.9 mph - N/A   Clear
4:54 AM 34.0 °F 28.0 °F 24.1 °F 67% 30.30 in 10.0 mi North 6.9 mph - N/A   Clear
5:54 AM 35.1 °F 29.3 °F 24.1 °F 64% 30.34 in 10.0 mi North 6.9 mph - N/A   Clear
6:54 AM 36.0 °F 28.0 °F 25.0 °F 64% 30.37 in 10.0 mi NNE 11.5 mph - N/A   Clear
7:54 AM 37.0 °F 27.4 °F 19.9 °F 50% 30.40 in 10.0 mi NNE 17.3 mph 25.3 mph N/A   Clear
8:54 AM 37.0 °F 28.1 °F 12.0 °F 36% 30.41 in 10.0 mi NNE 15.0 mph 23.0 mph N/A   Clear
9:54 AM 39.9 °F 33.4 °F 14.0 °F 35% 30.42 in 10.0 mi NE 10.4 mph 23.0 mph N/A   Clear
10:54 AM 41.0 °F 33.1 °F 12.0 °F 31% 30.43 in 10.0 mi NE 15.0 mph 24.2 mph N/A   Clear
11:54 AM 42.1 °F 35.7 °F 7.0 °F 24% 30.42 in 10.0 mi NE 11.5 mph 18.4 mph N/A   Clear
12:54 PM 42.1 °F 36.1 °F 8.1 °F 25% 30.41 in 10.0 mi ENE 10.4 mph 19.6 mph N/A   Clear
1:54 PM 43.0 °F 38.2 °F 9.0 °F 25% 30.40 in 10.0 mi NE 8.1 mph 18.4 mph N/A   Clear
2:54 PM 42.1 °F 36.1 °F 9.0 °F 26% 30.40 in 10.0 mi East 10.4 mph 19.6 mph N/A   Clear
3:54 PM 39.9 °F 33.9 °F 10.0 °F 29% 30.41 in 10.0 mi ENE 9.2 mph 19.6 mph N/A   Clear
4:54 PM 37.0 °F 32.4 °F 8.1 °F 30% 30.43 in 10.0 mi ENE 5.8 mph - N/A   Clear
5:54 PM 34.0 °F 29.8 °F 10.0 °F 37% 30.44 in 10.0 mi NNE 4.6 mph - N/A   Clear
6:54 PM 32.0 °F 26.4 °F 8.1 °F 37% 30.44 in 10.0 mi NNE 5.8 mph - N/A   Clear
7:54 PM 34.0 °F 26.6 °F 7.0 °F 32% 30.43 in 10.0 mi NNE 9.2 mph - N/A   Clear
8:54 PM 34.0 °F 27.2 °F 8.1 °F 34% 30.41 in 10.0 mi NNE 8.1 mph - N/A   Clear
9:54 PM 33.1 °F 24.4 °F 8.1 °F 35% 30.39 in 10.0 mi NNE 11.5 mph - N/A   Clear
10:54 PM 32.0 °F 24.2 °F 9.0 °F 38% 30.40 in 10.0 mi NNE 9.2 mph - N/A   Partly Cloudy
11:54 PM 33.1 °F 24.9 °F 10.0 °F 38% 30.40 in 10.0 mi NNE 10.4 mph 20.7 mph N/A   Overcast